User: anonymous   Login
Location: Arbon
(43.0005°N, 0.7472°E)
Time: 07:34:05
(UTC+00:00)
Language:

Cosmos 1953 Rocket - Orbit

View from above orbital plane
View from above orbital plane
View from above satellite
View from above satellite

Ground track
Ground track

The orbit data is extracted from the following two-line orbital elements,

1 19211U 88050B   20296.06644490  .00000073  00000-0  59865-5 0  9995
2 19211  82.5242 138.5971 0023014  50.1767  63.0196 14.83081356748035
Epoch (UTC): 22 October 2020 01:35:40
Eccentricity: 0.0023014
inclination: 82.5242°
perigee height: 603 km
apogee height: 636 km
right ascension of ascending node: 138.5971°
argument of perigee: 50.1767°
revolutions per day: 14.83081356
mean anomaly at epoch: 63.0196°
orbit number at epoch: 74803

The dashed part of the orbit path shows where the satellite is in the earth's shadow,  

DLR